Weather History for Fort Myers Airport, FL

Change the Weather History Date:

Tuesday, November 5, 2013

  Actual Average Record
Temperature  
Mean Temperature 74 °F -  
Max Temperature 82 °F 80 °F 89 °F (1948)
Min Temperature 66 °F 62 °F 45 °F (1955)
Cooling Degree Days 9    
Growing Degree Days 24 (Base 50)    
Moisture  
Dew Point 65 °F    
Average Humidity 74    
Maximum Humidity 87    
Minimum Humidity 53    
Precipitation  
Precipitation 0.00 in - - ()
Sea Level Pressure  
Sea Level Pressure 30.05 in    
Wind  
Wind Speed 14 mph (ENE)    
Max Wind Speed 23 mph    
Max Gust Speed 31 mph    
Visibility 10 miles    
Events      
Averages and records for this station are not official NWS values.
T = Trace of Precipitation, MM = Missing Value Source: NWS Daily Summary

Daily Weather History Graph

Daily Weather History Graph

Search for Another Location

Airport:

Trip Planner

Search our weather history database for the weather conditions in past years. The results will help you decide how hot, cold, wet, or windy it might be!

Date:

Astronomy

Nov. 05, 2013 Rise Set
Actual Time 6:39 AM EST 5:41 PM EST
Civil Twilight 6:15 AM EST 6:05 PM EST
Nautical Twilight 5:47 AM EST 6:33 PM EST
Astronomical Twilight 5:20 AM EST 7:00 PM EST
Moon 8:45 AM EST (11/5) 7:49 PM EST (11/5)
Length of Visible Light 11h 50m
Length of Day
11h 02m
Waxing Crescent, 6% of the Moon is Illuminated
Nov 5
Waxing Crescent
Nov 10
First Quarter
Nov 17
Full
Nov 25
Last Quarter
Dec 2
New

Hourly Weather History & Observations

Time (EST) Temp. Heat Index Dew Point Humidity Pressure Visibility Wind Dir Wind Speed Gust Speed Precip Events Conditions
12:53 AM 70.0 °F - 62.1 °F 76% 30.07 in 10.0 mi NE 15.0 mph - N/A   Overcast
1:53 AM 70.0 °F - 62.1 °F 76% 30.06 in 10.0 mi NE 16.1 mph - N/A   Overcast
2:53 AM 68.0 °F - 62.1 °F 81% 30.05 in 10.0 mi NE 12.7 mph - N/A   Partly Cloudy
3:53 AM 68.0 °F - 63.0 °F 84% 30.04 in 10.0 mi NE 11.5 mph - N/A   Scattered Clouds
4:53 AM 66.9 °F - 63.0 °F 87% 30.04 in 10.0 mi NE 10.4 mph - N/A   Clear
5:53 AM 66.9 °F - 63.0 °F 87% 30.04 in 10.0 mi NNE 8.1 mph - N/A   Clear
6:53 AM 66.9 °F - 63.0 °F 87% 30.06 in 10.0 mi NE 8.1 mph - N/A   Scattered Clouds
7:53 AM 70.0 °F - 64.9 °F 84% 30.07 in 10.0 mi NE 10.4 mph - N/A   Overcast
8:53 AM 73.9 °F - 66.0 °F 76% 30.08 in 10.0 mi ENE 16.1 mph - N/A   Mostly Cloudy
9:53 AM 81.0 °F 83.3 °F 66.9 °F 62% 30.09 in 10.0 mi East 23.0 mph 31.1 mph N/A   Scattered Clouds
10:53 AM 82.9 °F 85.0 °F 66.0 °F 56% 30.07 in 10.0 mi East 16.1 mph 23.0 mph N/A   Scattered Clouds
11:53 AM 82.9 °F 85.0 °F 66.0 °F 56% 30.06 in 10.0 mi East 18.4 mph 26.5 mph N/A   Mostly Cloudy
12:53 PM 82.9 °F 84.4 °F 64.0 °F 53% 30.03 in 10.0 mi East 17.3 mph 26.5 mph N/A   Overcast
1:53 PM 80.1 °F 82.1 °F 66.0 °F 62% 30.03 in 10.0 mi ENE 20.7 mph - N/A   Overcast
2:53 PM 79.0 °F - 66.9 °F 66% 30.02 in 10.0 mi ENE 11.5 mph - N/A   Overcast
3:53 PM 77.0 °F - 66.9 °F 71% 30.03 in 10.0 mi ENE 15.0 mph - N/A   Overcast
4:53 PM 77.0 °F - 64.9 °F 66% 30.04 in 10.0 mi ENE 17.3 mph 24.2 mph N/A   Overcast
5:53 PM 77.0 °F - 64.9 °F 66% 30.04 in 10.0 mi East 13.8 mph - N/A   Overcast
6:53 PM 75.9 °F - 64.9 °F 69% 30.04 in 10.0 mi ENE 10.4 mph - N/A   Overcast
7:53 PM 75.0 °F - 66.0 °F 73% 30.06 in 10.0 mi ENE 11.5 mph - N/A   Overcast
8:53 PM 73.9 °F - 66.9 °F 79% 30.07 in 10.0 mi ENE 12.7 mph - N/A   Mostly Cloudy
9:53 PM 73.9 °F - 68.0 °F 82% 30.07 in 10.0 mi ENE 11.5 mph - N/A   Overcast
10:53 PM 73.9 °F - 68.0 °F 82% 30.07 in 10.0 mi ENE 12.7 mph - N/A   Overcast
11:53 PM 73.0 °F - 68.0 °F 84% 30.06 in 10.0 mi ENE 15.0 mph - N/A   Overcast